Regional Weather Roundup
Issued by NWS Newport/Morehead, NC

Current Version | Previous Version | Text Only | Print | Product List | Glossary On
Versions: 1 2 3 4 5 6 7 8 9 10 11 12 13 14 15 16 17 18 19 20 21 22 23 24 25 26 27 28 29 30 31 32 33 34 35 36 37 38 39 40 41 42 43 44 45 46 47 48 49 50
000 ASUS42 KMHX 271225 RWRMHX WEATHER ROUNDUP FOR EASTERN NORTH CAROLINA NATIONAL WEATHER SERVICE NEWPORT/MOREHEAD CITY NC 800 AM EDT THU JUL 27 2017 NOTE: "FAIR" INDICATES FEW OR NO CLOUDS BELOW 12,000 FEET WITH NO SIGNIFICANT WEATHER AND/OR OBSTRUCTIONS TO VISIBILITY NCZ015>017-031-032-045>047-102-103-271300- NORTH COAST CITY SKY/WX TMP DP RH WIND PRES REMARKS EDENTON PTSUNNY 78 71 78 CALM 30.09S ELIZABETH CITY MOSUNNY 75 72 90 CALM 30.08S KITTY HAWK SUNNY 75 69 82 CALM 30.07R MANTEO NOT AVBL $$ NCZ045>047-081-094-103-104-271300- CENTRAL COAST CITY SKY/WX TMP DP RH WIND PRES REMARKS FRISCO SUNNY 78 69 73 CALM 30.08R $$ NCZ095-097-098-100-101-271300- SOUTHERN COAST CITY SKY/WX TMP DP RH WIND PRES REMARKS BEAUFORT SUNNY 79 73 82 CALM 30.08R CEDAR ISLAND NOT AVBL JACKSONVILLE SUNNY 77 73 87 CALM 30.07R PINEY ISLAND SUNNY N/A N/A N/A CALM 30.08R WILMINGTON SUNNY 76 73 91 CALM 30.07R $$ NCZ011>013-027>030-043-044-078>080-089-090>093-098-271300- COASTAL PLAIN CITY SKY/WX TMP DP RH WIND PRES REMARKS AHOSKIE N/A 70 69 96 CALM 30.09S CLINTON MOSUNNY 74 72 93 CALM 30.09S ELIZABETHTOWN NOT AVBL GOLDSBORO SUNNY 74 73 99 W3 30.08S GREENVILLE SUNNY 73 70 88 CALM 30.10S HAVELOCK MOSUNNY 75 71 87 CALM 30.09 KENANSVILLE MOSUNNY 70 68 94 CALM 30.09S KINSTON MOSUNNY 72 70 94 CALM 30.10S NEW BERN MOSUNNY 75 72 90 CALM 30.09S RICHLANDS SUNNY 72 70 93 CALM 30.09R ROCKY MOUNT CLOUDY 72 69 90 CALM 30.09S WASHINGTON MOSUNNY 75 70 83 SW3 30.09S WHITEVILLE SUNNY 74 72 93 CALM 30.07S $$ AMZ130-135-150-152-154-156-158-170-250-252-270-ANZ085-086-088-633-658-670-271300- MARINE OBSERVATIONS STATION/POSITION TIME TEMP WIND PRES WAVE SWELL AIR SEA DIR/SP/G HT/PER HT/PER (UTC) (F) (DEG/KT/KT) (MB) (FT/S) (FT/S) CHESAPEAKE LIGHT NOT AVBL 64 E VA BEACH 1050 75 77 150/ 4/ 6 1018.6 3/ 6 3/ 6 DUCK 1200 75 71 180/ 4/ 5 1018.2 2 E DUCK 1200 74 N/A 3/ 7 OREGON INLET 1200 78 76 130/ 3/ 5 1018.3 13E OREGON INLT 1148 78 N/A 3/ 8 3/ 8 HATTERAS CG 1200 79 78 20/ 3/ 3 1018.4 DIAMOND BUOY 1050 80 83 150/ 6/ 8 1017.8 3/ 8 3/ 8 CAPE LOOKOUT 1200 80 110/ 3/ 4 1018.1 BEAUFORT LAB 1200 80 79 130/ 2/ 3 1017.8 30 SE NEW RVR IN 1208 81 84 130/ 8/ 12 1018.3 30 SE NEW RVR IN 1143 84 N/A 3/ 7 27 SE WRIGHTSVLE 1208 82 83 130/ 10/ 12 1017.9 5 SE WRIGHTSVLE 1208 81 81 130/ 10/ 14 1017.9 225 S CAPE HAT 1150 81 82 290/ 12/ 17 1017.5 3/ 8 2/ 8 41 SE CHARLESTON 1200 81 82 100/ 2/ 6 1017.5 $$

USA.gov is the U.S. government's official web portal to all federal, state and local government web resources and services.